Home   Weather   New Zealand   Christchurch   Past weeks
Flag for New Zealand

Past Weather in Christchurch, New Zealand — Yesterday and Last 2 Weeks

Currently: 48 °F. Partly cloudy. (Weather station: Christchurch Airport, New Zealand). See more current weather

Past Weather in Christchurch — Graph

°F

Christchurch Temperature Yesterday

Maximum temperature yesterday: 48 °F (at 1:30 pm)
Minimum temperature yesterday: 45 °F (at 12:00 am)
Average temperature yesterday: 46 °F

High & Low Weather Summary for the Past Weeks

 TemperatureHumidityPressure
High63 °F (May 15, 1:00 pm)100% (May 7, 4:00 am)30.51 "Hg (May 7, 4:00 am)
Low21 °F (May 10, 4:00 am)41% (May 8, 3:00 pm)29.77 "Hg (May 16, 6:30 am)
Average44 °F86%30.14 "Hg
* Reported May 6 7:00 pm — May 21 7:00 pm, Christchurch. Weather by CustomWeather, © 2024

Note: Actual official high and low records may vary slightly from our data, if they occured in-between our weather recording intervals... More about our weather records

Christchurch Weather History for the Previous 24 Hours

Scroll right to see more
 ConditionsComfort  
Time TempWeatherWind HumidityBarometerVisibility
7:00 pm
Tue, May 21
48 °FOvercast.12 mph94%29.92 "HgN/A
6:30 pm48 °FOvercast.10 mph100%29.92 "HgN/A
6:00 pm50 °FPartly cloudy.6 mph100%29.92 "HgN/A
5:00 pm50 °FLight rain. Fog.6 mph100%29.92 "Hg3 mi
4:30 pm52 °FLight rain. Fog.5 mph94%29.92 "Hg2 mi
4:00 pm52 °FMostly cloudy.5 mph94%29.92 "HgN/A
3:30 pm52 °FBroken clouds.2 mph94%29.92 "HgN/A
3:00 pm52 °FOvercast.5 mph94%29.92 "HgN/A
2:30 pm52 °FBroken clouds.5 mph94%29.92 "HgN/A
2:00 pm52 °FPartly sunny.6 mph94%29.92 "HgN/A
1:30 pm52 °FLight rain. Fog.6 mph100%29.92 "Hg2 mi
1:00 pm52 °FRain. Fog.5 mph100%29.92 "Hg2 mi
12:30 pm50 °FRain. Fog.3 mph100%29.92 "Hg1 mi
12:00 pm48 °FLight rain. Fog.6 mph100%29.95 "Hg1 mi
11:30 am48 °FLight rain. Fog.5 mph100%29.95 "Hg1 mi
11:00 am48 °FRain. Fog.3 mph100%29.95 "Hg2 mi
10:30 am48 °FLight rain. Fog.6 mph100%29.95 "Hg1 mi
10:00 am48 °FLight rain. Fog.10 mph100%29.95 "Hg2 mi
9:30 am48 °FLight rain. Fog.9 mph100%29.95 "Hg1 mi
9:00 am48 °FLight rain. Fog.10 mph100%29.95 "Hg1 mi
8:30 am48 °FLight rain. Fog.12 mph100%29.95 "Hg2 mi
8:00 am48 °FLight rain. Fog.10 mph94%29.95 "Hg2 mi
7:30 am48 °FDrizzle. Fog.10 mph94%29.95 "Hg1 mi
7:00 am48 °FLight rain. Fog.9 mph100%29.95 "Hg1 mi
6:30 am48 °FDrizzle. Fog.10 mph100%29.95 "Hg1 mi
6:00 am48 °FLight rain. Fog.9 mph100%29.98 "Hg1 mi
5:30 am46 °FDrizzle. Fog.9 mph100%29.98 "Hg2 mi
5:00 am48 °FDrizzle. Fog.9 mph94%29.98 "Hg2 mi
4:30 am48 °FLight rain. Low clouds.9 mph94%29.98 "Hg4 mi
4:00 am48 °FLow clouds.8 mph94%29.98 "HgN/A
3:30 am48 °FLow clouds.9 mph94%30.01 "HgN/A
3:00 am46 °FLow clouds.8 mph100%30.01 "Hg6 mi
2:30 am46 °FLight rain. Fog.9 mph100%30.01 "Hg2 mi
2:00 am46 °FLight rain. Fog.6 mph100%30.04 "Hg2 mi
1:00 am46 °FLow clouds.7 mph100%30.04 "HgN/A
12:30 am46 °FLow clouds.7 mph100%30.04 "HgN/A
12:00 am46 °FPassing clouds.7 mph100%30.04 "Hg5 mi
11:30 pm
Mon, May 20
46 °FLow clouds.5 mph100%30.04 "Hg4 mi
11:00 pm46 °FFog.8 mph100%30.04 "Hg3 mi
10:30 pm48 °FLow clouds.6 mph94%30.04 "Hg4 mi
10:00 pm48 °FLow clouds.7 mph94%30.04 "HgN/A
9:30 pm48 °FLow clouds.7 mph94%30.04 "HgN/A
9:00 pm46 °FLow clouds.7 mph100%30.04 "Hg4 mi
8:30 pm48 °FLow clouds.8 mph94%30.04 "Hg4 mi
8:00 pm48 °FFog.5 mph100%30.04 "Hg2 mi
Weather by CustomWeather, © 2024

See weather overview